Theta_e
286 285 284 284 284 284 283 283 283 284 283 283 284 283 283 282 282 281 281 281 280 280 280 279 279 279 278 278 277 277 277 276 273 274 276 276 275 275 276 276 277 276 277
284 283 282 282 282 281 281 281 282 281 282 282 282 282 281 281 280 279 279 279 278 279 278 278 277 278 278 276 276 276 275 275 274 272 274 274 274 275 274 274 275 276 275
282 282 281 280 280 280 280 280 281 280 280 281 281 280 280 280 279 279 278 278 278 278 278 277 276 276 275 275 275 275 275 276 274 273 271 273 273 274 273 274 274 273 275
281 280 279 279 279 279 279 279 279 279 278 278 279 279 279 279 279 279 278 278 277 277 278 277 276 276 275 275 275 275 275 274 274 272 272 272 272 273 273 271 270 272 272
280 279 278 279 278 278 278 278 278 278 277 278 278 278 279 279 280 278 277 276 276 276 277 276 276 277 278 278 276 275 275 274 273 272 271 270 270 270 270 271 269 270 271
278 278 278 278 278 278 278 277 277 277 277 277 277 277 276 279 281 281 277 276 276 276 275 275 275 276 276 277 278 279 278 274 272 272 270 269 270 271 270 269 269 267 265
278 278 278 278 277 277 277 277 276 275 276 275 275 275 275 276 280 280 279 276 275 275 275 275 275 275 275 275 276 279 277 277 277 273 270 270 270 270 270 269 268 267 266
277 277 277 277 277 276 275 275 274 275 274 274 274 275 275 276 279 279 278 276 275 275 275 275 274 274 275 275 276 275 274 274 274 273 272 273 272 271 271 270 268 267 266
277 277 277 277 276 275 274 274 274 274 274 273 275 274 274 275 277 278 278 275 275 275 275 275 274 274 276 278 276 273 272 271 274 275 276 275 274 273 271 268 263 262 260
276 276 277 276 276 274 274 273 274 273 274 275 275 274 274 274 276 277 277 276 274 274 274 274 275 275 277 278 275 272 268 269 270 269 267 267 268 267 269 267 265 260 260
276 276 275 275 274 273 273 273 273 272 273 272 273 273 274 273 273 276 277 275 274 273 272 272 273 275 277 278 276 270 269 272 267 264 263 263 264 264 264 265 265 263 259
275 274 273 271 273 273 271 272 272 272 271 271 271 271 272 273 274 274 276 276 276 273 272 272 272 276 276 275 272 272 272 269 263 261 261 261 261 261 262 262 262 262 263
273 271 269 269 272 272 270 271 269 270 269 269 270 268 268 271 271 273 274 275 275 273 273 274 275 274 271 268 269 269 266 262 261 259 259 260 261 261 261 260 261 261 261
271 268 268 268 268 268 271 271 268 267 267 269 268 267 266 267 268 269 270 271 273 273 273 267 269 268 266 266 263 263 262 261 260 259 259 260 260 259 259 260 259 259 258
267 268 268 268 267 267 268 267 269 270 270 264 263 265 263 265 268 273 273 271 269 273 264 259 260 260 259 259 259 259 259 259 258 258 258 258 258 258 258 258 258 257 256
267 267 267 267 265 266 266 266 272 273 274 275 276 272 269 273 275 275 275 275 275 273 255 252 256 258 257 257 257 257 257 257 257 257 257 257 256 256 256 256 257 256 255
265 265 264 266 266 265 266 265 264 267 271 272 272 272 273 273 273 274 273 274 270 265 252 251 256 257 256 256 256 256 255 256 256 256 255 256 256 255 255 255 255 255 255
259 263 264 264 266 266 266 265 265 264 263 264 267 269 270 271 271 271 272 266 257 257 253 253 254 253 253 254 254 254 254 254 254 254 254 254 254 254 254 253 254 254 254
260 262 263 265 265 265 264 264 263 263 262 262 261 263 263 267 268 269 269 255 253 254 254 251 251 250 251 252 253 253 253 253 253 253 253 253 254 254 253 253 254 254 254
260 264 264 264 264 263 263 263 263 261 260 259 259 258 257 257 258 256 256 254 253 252 251 250 250 249 249 249 251 252 252 252 252 252 253 253 253 254 253 253 253 253 253
262 263 264 262 261 261 263 263 261 258 258 258 258 259 266 261 256 256 256 255 254 252 252 250 249 248 248 248 248 250 251 252 252 253 253 253 253 253 253 253 253 253 253
262 262 261 260 261 261 261 260 259 257 256 256 258 259 265 257 257 257 257 256 253 250 250 248 247 248 249 248 247 250 251 251 252 253 252 253 253 253 253 253 253 253 253
262 262 261 260 261 262 259 259 257 256 256 257 257 258 258 257 257 256 255 253 249 249 249 246 246 248 249 248 248 250 251 251 253 253 252 252 252 253 254 254 254 253 253
262 262 262 261 260 259 258 257 257 258 258 257 257 256 256 255 254 253 252 251 248 248 248 248 246 247 249 249 249 249 251 252 253 254 254 254 253 253 253 254 255 254 254
260 258 258 258 258 258 257 256 257 257 256 255 254 253 252 252 252 251 251 250 249 247 248 248 247 248 248 248 249 249 250 253 251 253 253 253 253 253 254 255 255 255 255
256 255 256 256 256 256 255 254 252 251 250 251 252 252 252 253 253 251 250 250 249 248 248 249 249 248 248 249 249 252 254 257 257 260 262 263 262 263 263 263 260 257 258
Wind_Speed
7 7 8 7 6 6 6 5 5 5 5 6 7 7 7 7 7 6 5 5 5 4 4 5 5 4 4 5 4 4 4 4 7 9 9 9 12 11 11 10 12 11 9
7 7 7 6 6 6 6 5 5 6 5 6 6 6 6 6 5 5 5 4 4 5 5 5 6 6 5 5 4 5 5 6 8 15 12 11 13 14 13 14 10 9 11
7 7 6 6 6 6 6 5 5 6 5 5 5 5 5 4 4 4 4 4 4 4 5 6 6 6 5 5 5 5 5 8 7 9 12 10 10 11 13 11 12 12 10
6 6 7 6 6 5 5 5 5 5 6 5 5 4 4 4 4 4 5 4 5 5 4 4 5 5 5 6 6 7 8 8 9 9 11 11 11 12 11 15 14 11 12
7 6 6 6 6 5 5 5 5 5 5 5 5 4 3 4 3 4 5 4 4 4 3 6 6 5 11 10 7 8 9 9 9 9 10 11 11 13 14 13 15 15 12
7 7 6 6 5 5 5 5 4 4 4 4 4 4 2 2 6 7 5 3 4 5 5 4 6 4 8 13 16 17 14 11 12 10 10 12 14 13 12 14 14 15 15
7 6 6 5 6 5 4 4 4 4 4 4 3 3 2 1 3 5 5 3 3 3 4 6 8 7 7 7 15 17 13 19 17 13 14 12 14 14 15 17 16 16 16
7 6 5 5 5 5 5 4 3 2 3 3 3 2 1 1 2 4 4 2 3 3 4 4 6 9 8 11 12 10 11 10 10 10 12 13 13 16 15 14 17 17 16
7 7 6 5 5 5 4 4 3 3 3 2 2 3 2 2 2 3 3 3 5 4 6 5 7 8 12 19 12 13 12 10 14 20 20 24 27 25 20 12 11 12 15
7 6 5 5 5 5 5 5 3 2 2 1 2 3 3 2 3 4 5 4 5 5 5 7 11 13 18 20 13 11 11 13 13 10 11 14 14 14 20 11 10 12 12
5 6 5 4 5 5 4 3 3 2 2 2 3 1 1 2 1 6 7 4 4 5 5 7 6 17 20 22 23 10 14 18 12 11 11 9 9 9 8 8 10 10 12
6 6 5 4 3 4 4 2 2 3 3 2 1 1 0 2 4 6 8 9 10 4 6 6 8 19 21 22 19 22 24 16 9 9 10 10 10 9 9 10 12 11 11
6 5 4 3 2 3 3 3 2 2 2 2 2 1 2 1 1 8 10 11 11 7 6 12 15 18 19 13 17 21 14 8 8 9 10 10 10 11 13 12 11 13 13
6 5 4 4 3 3 2 2 2 2 1 2 2 1 2 2 3 3 5 5 9 8 10 5 10 13 13 13 8 9 7 7 8 9 10 11 11 10 11 11 12 12 13
5 4 4 4 4 3 2 2 2 3 3 2 3 3 3 4 3 7 8 3 3 6 3 2 6 6 7 7 7 7 7 7 8 8 10 11 11 11 11 11 11 12 12
5 4 4 3 2 2 2 2 4 5 7 8 10 6 4 9 13 14 14 14 14 14 4 2 4 5 6 7 8 8 7 8 8 9 10 9 10 11 12 11 10 11 13
5 4 3 3 3 2 2 2 2 3 5 6 6 8 10 11 13 12 13 14 10 10 2 2 4 6 6 7 7 7 9 8 9 8 9 9 10 10 13 11 11 11 12
3 4 3 3 2 2 2 2 2 2 2 2 4 9 10 12 12 13 14 8 5 5 1 3 4 4 5 6 7 7 8 8 8 8 9 9 9 10 11 11 11 12 12
4 2 2 2 2 3 2 1 1 1 2 3 2 4 5 12 12 11 10 1 2 3 3 3 4 4 5 5 6 7 8 9 9 9 8 8 9 8 10 10 11 15 15
2 3 4 3 2 2 1 2 2 1 2 2 3 3 2 3 2 2 2 2 3 4 4 4 5 5 5 5 6 6 7 8 8 8 9 9 8 8 10 11 10 11 11
3 3 4 2 2 2 2 2 1 2 3 3 4 3 12 3 2 3 4 3 4 4 4 4 4 5 5 5 5 6 7 9 8 9 9 9 9 10 9 10 10 10 11
3 3 3 2 2 2 2 2 1 1 2 3 5 5 13 3 4 5 5 5 4 4 4 4 5 5 5 5 4 6 8 9 9 8 9 9 10 10 10 10 10 10 10
3 3 3 2 2 2 1 1 1 2 3 4 4 5 5 5 5 5 6 5 4 5 4 4 5 6 5 5 5 6 8 9 9 8 10 10 11 10 10 10 10 10 10
4 4 3 2 2 2 1 2 2 4 4 4 4 4 5 5 5 6 5 5 5 5 4 5 5 7 8 7 6 5 8 9 9 10 12 12 12 12 10 11 11 12 11
3 3 3 2 2 1 1 2 2 3 3 3 4 4 4 5 5 6 6 5 5 5 7 7 5 8 10 11 11 13 14 17 13 15 11 12 15 17 13 11 12 11 12
3 2 2 1 0 0 1 2 3 3 4 4 5 5 5 6 7 6 6 6 6 6 8 7 8 10 11 11 12 15 16 17 16 18 13 11 11 12 10 10 12 8 11
Wind_Direction
101 92 93 91 90 87 87 82 78 78 76 76 77 72 62 54 41 41 57 32 44 43 33 46 28 24 21 18 1 1 352 333 306 313 312 315 326 323 320 323 318 315 315
109 107 102 98 93 88 82 78 81 82 68 73 72 75 70 63 50 50 48 28 39 42 31 36 26 14 28 4 344 1 341 326 320 319 323 326 328 329 324 320 316 317 317
113 110 104 98 93 93 94 88 81 85 80 80 87 85 81 71 63 55 45 31 38 35 34 32 13 1 6 349 332 345 328 333 330 316 318 319 319 321 320 317 324 322 317
110 109 112 111 110 108 105 100 99 99 104 101 105 111 96 88 69 48 49 32 25 28 36 18 6 348 354 340 351 333 336 329 333 325 312 317 323 328 319 324 324 324 323
123 120 117 114 111 112 108 107 106 111 111 111 111 132 110 86 72 61 36 24 16 9 20 7 358 343 351 352 335 329 330 332 329 317 314 318 322 327 328 328 315 319 324
134 132 132 131 129 123 120 123 121 119 117 116 111 110 116 98 66 50 57 23 11 352 350 351 337 334 338 338 333 325 327 329 316 317 314 310 312 319 322 319 315 319 319
137 144 144 141 133 137 140 132 126 132 122 122 111 124 124 30 69 33 45 14 343 336 332 335 338 330 327 323 313 316 325 319 316 315 308 303 312 323 319 313 314 307 304
141 144 152 156 143 139 138 130 127 133 151 154 147 160 169 328 35 359 14 2 314 309 311 304 326 322 318 312 308 326 317 316 313 306 295 303 314 318 311 313 309 309 301
159 163 168 157 144 145 144 153 169 167 177 169 175 185 189 236 318 334 339 343 315 319 316 336 313 306 299 308 327 322 317 311 305 302 313 315 314 315 314 313 313 314 309
174 165 153 149 154 162 162 172 174 180 164 195 205 190 233 217 301 317 337 329 315 321 319 312 311 319 312 310 333 328 321 312 308 332 318 316 313 305 313 308 311 302 305
153 146 143 153 165 163 160 162 163 182 180 223 235 236 276 142 323 331 317 325 309 303 318 312 310 313 306 329 331 332 309 317 342 327 317 309 307 304 305 304 303 296 297
153 143 144 160 169 150 146 177 184 198 208 232 248 269 354 53 346 326 315 314 299 327 305 301 292 302 329 330 330 321 323 344 328 315 312 310 312 312 308 304 296 285 280
147 152 157 166 141 142 163 182 183 192 181 217 215 209 252 302 321 312 312 305 310 312 297 297 341 333 333 333 328 328 341 322 317 312 309 305 309 308 309 304 299 296 290
155 162 164 158 167 193 184 182 181 180 197 229 241 249 272 263 256 250 263 272 280 291 307 7 335 340 340 333 325 327 318 313 312 307 305 305 309 312 312 314 313 314 310
156 166 176 180 189 189 203 193 207 220 200 198 229 211 229 267 248 267 288 273 259 307 66 14 353 345 338 331 324 320 318 316 312 310 308 309 309 311 312 318 314 313 310
163 177 184 173 179 175 181 272 268 265 271 278 282 253 223 253 298 307 306 315 335 351 39 9 331 324 317 316 315 312 311 306 307 309 305 305 307 310 310 314 311 311 308
172 169 161 167 173 171 194 185 246 318 309 300 312 322 321 311 306 311 317 319 356 13 51 324 306 307 303 307 303 305 305 302 303 298 301 303 306 306 310 310 311 309 307
156 168 163 167 175 185 204 209 209 238 288 309 332 330 320 324 318 312 306 15 353 359 240 260 276 280 280 287 294 295 296 298 299 299 299 300 301 301 304 306 307 310 310
154 163 142 160 189 195 182 195 232 274 283 282 309 325 327 322 317 315 340 128 248 271 269 275 264 263 267 270 279 286 287 291 294 297 295 295 296 296 296 298 301 306 308
142 163 177 186 186 168 182 232 273 262 264 272 287 274 297 329 295 261 240 227 240 251 260 256 260 257 259 260 270 278 288 291 293 293 293 292 291 290 293 297 299 303 304
155 183 174 150 164 177 210 234 220 235 261 280 281 265 292 277 290 285 291 248 248 252 257 253 264 262 256 260 268 281 285 287 289 290 292 294 294 293 292 289 292 294 296
167 169 175 185 170 194 212 202 203 238 252 274 293 292 312 313 283 279 278 271 257 249 247 247 260 258 257 251 252 269 279 283 286 285 287 291 292 288 286 286 289 291 296
161 162 154 179 189 207 223 205 233 248 271 269 272 286 292 282 275 271 274 267 265 272 262 245 257 273 262 248 235 244 268 276 281 284 287 289 286 285 285 284 288 293 292
153 167 171 175 173 189 216 241 239 258 267 270 276 278 276 276 273 275 272 274 272 273 266 260 247 256 275 274 263 246 252 265 273 278 274 275 280 288 283 282 282 284 283
136 141 162 179 187 216 251 258 251 258 266 266 272 269 265 269 278 273 274 277 276 279 282 279 271 264 264 267 271 275 272 278 269 267 269 265 265 273 274 275 277 280 279
118 125 128 109 97 260 268 273 271 273 276 277 271 269 269 280 284 281 278 278 278 280 283 279 274 267 272 277 276 280 286 289 286 281 278 281 290 293 291 293 275 271 280